When you browse on this site, cookies collect data to enhance your experience and personalize the content and advertising you see.
Visit our Privacy Policy to learn more. By continuing to use the site, you agree to this use of cookies and data.
  • In Romania
  • List of Countries
  • For 7 days
  • Water Temperature
  • Satellite Maps
  • Weather Map
  • Weather Widgets
  • user-avatar
    Login

    Hourly Weather Puerto Ayacucho

    Today, 18 February, Monday

    Time Temperature Precipitation Wind Pressure Humidity
    00:00 +28°C° 0 mm 1 mps 752 mmHg 74%
    01:00 +28°C° 0 mm 1 mps 752 mmHg 73%
    02:00 +28°C° 0 mm 1 mps 752 mmHg 73%
    03:00 +28°C° 0 mm 1 mps 752 mmHg 73%
    04:00 +27°C° 0 mm 1 mps 752 mmHg 74%
    05:00 +27°C° 0 mm 1 mps 752 mmHg 76%
    06:00 +27°C° 0 mm 1 mps 752 mmHg 78%
    07:00 +27°C° 0 mm 1 mps 753 mmHg 79%
    08:00 +27°C° 0.2 mm 1 mps 753 mmHg 82%
    09:00 +26°C° 0.2 mm 1 mps 754 mmHg 84%
    10:00 +26°C° 0.2 mm 1 mps 754 mmHg 87%
    11:00 +26°C° 0.3 mm 1 mps 753 mmHg 87%
    12:00 +26°C° 0.3 mm 1 mps 753 mmHg 87%
    13:00 +26°C° 0.3 mm 1 mps 752 mmHg 87%
    14:00 +27°C° 0 mm 1 mps 752 mmHg 81%
    15:00 +28°C° 0 mm 1 mps 751 mmHg 75%
    16:00 +30°C° 0 mm 1 mps 751 mmHg 69%
    17:00 +29°C° 0 mm 1 mps 751 mmHg 71%
    18:00 +28°C° 0 mm 2 mps 751 mmHg 73%
    19:00 +27°C° 0 mm 2 mps 752 mmHg 75%
    20:00 +27°C° 0 mm 2 mps 752 mmHg 73%
    21:00 +27°C° 0 mm 2 mps 752 mmHg 72%
    22:00 +27°C° 0 mm 2 mps 753 mmHg 71%
    23:00 +27°C° 0 mm 1 mps 752 mmHg 71%

    Tomorrow, 19 February, Tuesday

    Time Temperature Precipitation Wind Pressure Humidity
    00:00 +27°C° 0 mm 1 mps 752 mmHg 71%
    01:00 +27°C° 0 mm 1 mps 752 mmHg 71%
    02:00 +27°C° 0 mm 1 mps 751 mmHg 69%
    03:00 +27°C° 0 mm 1 mps 751 mmHg 68%
    04:00 +27°C° 0 mm 1 mps 751 mmHg 66%
    05:00 +27°C° 0 mm 1 mps 752 mmHg 66%
    06:00 +27°C° 0 mm 2 mps 752 mmHg 66%
    07:00 +28°C° 0 mm 2 mps 752 mmHg 66%
    08:00 +30°C° 0 mm 2 mps 753 mmHg 59%
    09:00 +33°C° 0 mm 1 mps 753 mmHg 52%
    10:00 +35°C° 0 mm 1 mps 753 mmHg 44%
    11:00 +36°C° 0 mm 1 mps 752 mmHg 42%
    12:00 +36°C° 0 mm 1 mps 751 mmHg 40%
    13:00 +37°C° 0 mm 1 mps 751 mmHg 38%
    14:00 +37°C° 0 mm 1 mps 750 mmHg 40%
    15:00 +36°C° 0 mm 1 mps 750 mmHg 41%
    16:00 +37°C° 0 mm 2 mps 749 mmHg 42%
    17:00 +35°C° 0 mm 2 mps 749 mmHg 48%
    18:00 +34°C° 0 mm 2 mps 750 mmHg 55%
    19:00 +31°C° 0 mm 2 mps 750 mmHg 61%
    20:00 +30°C° 0 mm 2 mps 751 mmHg 62%
    21:00 +30°C° 0 mm 2 mps 751 mmHg 63%
    22:00 +29°C° 0 mm 2 mps 752 mmHg 65%
    23:00 +29°C° 0 mm 2 mps 751 mmHg 65%

    Day after tomorrow, 20 February, Wednesday

    Time Temperature Precipitation Wind Pressure Humidity
    00:00 +28°C° 0 mm 2 mps 751 mmHg 66%
    01:00 +28°C° 0 mm 1 mps 751 mmHg 67%
    02:00 +28°C° 0 mm 1 mps 751 mmHg 67%
    03:00 +27°C° 0 mm 1 mps 751 mmHg 67%
    04:00 +27°C° 0 mm 1 mps 750 mmHg 67%
    05:00 +28°C° 0 mm 1 mps 751 mmHg 66%
    06:00 +28°C° 0 mm 1 mps 751 mmHg 65%
    07:00 +28°C° 0 mm 1 mps 752 mmHg 64%
    08:00 +30°C° 0 mm 1 mps 752 mmHg 58%
    09:00 +32°C° 0 mm 2 mps 752 mmHg 52%
    10:00 +35°C° 0 mm 2 mps 752 mmHg 47%
    11:00 +36°C° 0 mm 2 mps 751 mmHg 45%
    12:00 +37°C° 0 mm 2 mps 750 mmHg 43%
    13:00 +38°C° 0 mm 2 mps 750 mmHg 41%
    14:00 +37°C° 0.2 mm 2 mps 749 mmHg 44%
    15:00 +36°C° 0.2 mm 1 mps 749 mmHg 47%
    16:00 +35°C° 0.2 mm 1 mps 748 mmHg 49%
    17:00 +35°C° 0.1 mm 2 mps 749 mmHg 55%
    18:00 +32°C° 0.1 mm 2 mps 749 mmHg 61%
    19:00 +31°C° 0.1 mm 2 mps 750 mmHg 66%
    20:00 +30°C° 0 mm 2 mps 750 mmHg 67%
    21:00 +30°C° 0 mm 2 mps 751 mmHg 67%
    22:00 +29°C° 0 mm 2 mps 751 mmHg 68%
    23:00 +29°C° 0 mm 1 mps 751 mmHg 68%

    21 February, Thursday

    Time Temperature Precipitation Wind Pressure Humidity
    00:00 +29°C° 0 mm 1 mps 751 mmHg 67%
    01:00 +29°C° 0 mm 1 mps 750 mmHg 66%
    02:00 +29°C° 0 mm 1 mps 750 mmHg 67%
    03:00 +28°C° 0 mm 1 mps 750 mmHg 68%
    04:00 +28°C° 0 mm 1 mps 750 mmHg 69%
    05:00 +28°C° 0.2 mm 1 mps 751 mmHg 68%
    06:00 +28°C° 0.2 mm 1 mps 752 mmHg 68%
    07:00 +29°C° 0.2 mm 1 mps 752 mmHg 68%
    08:00 +30°C° 0 mm 1 mps 752 mmHg 62%
    09:00 +32°C° 0 mm 2 mps 753 mmHg 56%
    10:00 +35°C° 0 mm 2 mps 753 mmHg 50%
    11:00 +36°C° 0 mm 2 mps 752 mmHg 48%
    12:00 +36°C° 0 mm 1 mps 751 mmHg 46%
    13:00 +37°C° 0 mm 1 mps 750 mmHg 44%
    14:00 +36°C° 0.3 mm 1 mps 750 mmHg 45%
    15:00 +36°C° 0.3 mm 1 mps 749 mmHg 47%
    16:00 +36°C° 0.3 mm 1 mps 748 mmHg 48%
    17:00 +34°C° 0.1 mm 1 mps 749 mmHg 54%
    18:00 +34°C° 0.1 mm 2 mps 749 mmHg 60%
    19:00 +31°C° 0.1 mm 2 mps 750 mmHg 66%
    20:00 +31°C° 0 mm 2 mps 750 mmHg 67%
    21:00 +30°C° 0 mm 1 mps 751 mmHg 67%
    22:00 +30°C° 0 mm 1 mps 751 mmHg 68%
    23:00 +29°C° 0 mm 1 mps 751 mmHg 68%

    22 February, Friday

    Time Temperature Precipitation Wind Pressure Humidity
    00:00 +29°C° 0 mm 1 mps 751 mmHg 67%
    01:00 +29°C° 0 mm 2 mps 751 mmHg 67%
    02:00 +29°C° 0 mm 2 mps 751 mmHg 67%
    03:00 +28°C° 0 mm 2 mps 751 mmHg 66%
    04:00 +28°C° 0 mm 2 mps 750 mmHg 65%
    05:00 +28°C° 0 mm 2 mps 751 mmHg 65%
    06:00 +29°C° 0 mm 1 mps 752 mmHg 64%
    07:00 +29°C° 0 mm 1 mps 752 mmHg 64%
    08:00 +31°C° 0 mm 2 mps 752 mmHg 59%
    09:00 +34°C° 0 mm 2 mps 752 mmHg 54%
    10:00 +35°C° 0 mm 2 mps 753 mmHg 48%
    11:00 +36°C° 0.1 mm 2 mps 752 mmHg 48%
    12:00 +36°C° 0.1 mm 1 mps 751 mmHg 47%
    13:00 +37°C° 0.1 mm 1 mps 750 mmHg 46%
    14:00 +37°C° 0.3 mm 2 mps 750 mmHg 48%
    15:00 +37°C° 0.3 mm 2 mps 749 mmHg 50%
    16:00 +36°C° 0.3 mm 2 mps 749 mmHg 52%
    17:00 +35°C° 0.2 mm 2 mps 750 mmHg 58%
    18:00 +32°C° 0.2 mm 2 mps 750 mmHg 64%
    19:00 +31°C° 0.2 mm 2 mps 751 mmHg 70%
    20:00 +30°C° 0.3 mm 2 mps 751 mmHg 72%
    21:00 +29°C° 0.3 mm 2 mps 752 mmHg 74%
    22:00 +29°C° 0.3 mm 1 mps 752 mmHg 76%
    23:00 +28°C° 0.2 mm 1 mps 752 mmHg 77%

    23 February, Saturday

    Time Temperature Precipitation Wind Pressure Humidity
    00:00 +28°C° 0.2 mm 1 mps 751 mmHg 79%
    01:00 +27°C° 0.2 mm 1 mps 751 mmHg 81%
    02:00 +27°C° 0.4 mm 1 mps 751 mmHg 80%
    03:00 +27°C° 0.4 mm 1 mps 751 mmHg 80%
    04:00 +27°C° 0.4 mm 1 mps 751 mmHg 80%
    05:00 +27°C° 0 mm 1 mps 752 mmHg 77%
    06:00 +28°C° 0 mm 1 mps 752 mmHg 75%
    07:00 +28°C° 0 mm 1 mps 753 mmHg 73%
    08:00 +30°C° 0 mm 1 mps 753 mmHg 66%
    09:00 +31°C° 0 mm 1 mps 753 mmHg 59%
    10:00 +34°C° 0 mm 2 mps 753 mmHg 52%
    11:00 +35°C° 0 mm 2 mps 752 mmHg 48%
    12:00 +36°C° 0 mm 2 mps 751 mmHg 45%
    13:00 +38°C° 0 mm 2 mps 750 mmHg 41%
    14:00 +38°C° 0 mm 2 mps 749 mmHg 40%
    15:00 +38°C° 0 mm 2 mps 749 mmHg 39%
    16:00 +38°C° 0 mm 2 mps 748 mmHg 37%
    17:00 +36°C° 0 mm 2 mps 749 mmHg 43%
    18:00 +34°C° 0 mm 2 mps 749 mmHg 48%
    19:00 +31°C° 0 mm 2 mps 750 mmHg 53%
    20:00 +31°C° 0 mm 2 mps 750 mmHg 54%
    21:00 +30°C° 0 mm 2 mps 751 mmHg 55%
    22:00 +29°C° 0 mm 2 mps 751 mmHg 56%
    23:00 +29°C° 0 mm 2 mps 751 mmHg 58%
    Show more